Location: Tom
(33.0437°N, 96.9452°W)
Time: 17:56:28
(UTC-06:00)

Envisat - Pass Details

Date: 26 December 2018
Orbit: 764 x 766 km, 98.2° (Epoch: 23 January)

Event Time Altitude Azimuth Distance (km) Brightness Sun altitude
Rises 19:05:56 0° 158° (SSE) 3,217 6.2 -19.9°
Reaches altitude 10° 19:08:15 10° 155° (SSE) 2,294 5.4 -20.4°
Maximum altitude 19:13:14 64° 75° (ENE) 848 2.9 -21.4°
Drops below altitude 10° 19:18:16 10° 355° (N) 2,307 5.4 -22.4°
Sets 19:20:35 0° 352° (N) 3,236 6.2 -22.9°
